Regional Weather Roundup
Issued by NWS Cleveland, OH

Home | Current Version | Previous Version | Text Only | Print | Product List | Glossary Off
Versions: 1 2 3 4 5 6 7 8 9 10 11 12 13 14 15 16 17 18 19 20 21 22 23 24 25 26 27 28 29 30 31 32 33 34 35 36 37 38 39 40 41 42 43 44 45 46 47 48 49 50

000
ASUS41 KCLE 281900
RWRCLE
OHIO REGIONAL WEATHER ROUNDUP
NATIONAL WEATHER SERVICE WILMINGTON, OH
300 PM EDT THU AUG 28 2014

NOTE: "FAIR" INDICATES FEW OR NO CLOUDS BELOW 12,000 FEET WITH NO
SIGNIFICANT WEATHER AND/OR OBSTRUCTIONS TO VISIBILITY.

OHZ001>008-015>018-024>027-034-035-043-044-282000-
   NORTHWEST OHIO

CITY           SKY/WX    TMP DP  RH WIND       PRES   REMARKS
DEFIANCE       MOSUNNY   78  59  51 MISG      30.12F
FINDLAY        PTSUNNY   78  58  49 VRB6      30.11F
TOLEDO EXPRESS MOSUNNY   75  57  53 E8        30.12F
TOLEDO METCALF MOSUNNY   73  56  54 E3        30.14F
LIMA           MOSUNNY   77  61  57 CALM      30.12F
$$

OHZ009>014-019>023-028>033-038-089-282000-
   NORTHEAST OHIO

CITY           SKY/WX    TMP DP  RH WIND       PRES   REMARKS
CLE-HOPKINS    MOSUNNY   69  53  56 N7        30.16F
CLE-LAKEFRONT  SUNNY     70  53  54 N9        30.13F
CUY CO. ARPT   MOSUNNY   68  57  68 N14       30.15F
LORAIN-ELYRIA  SUNNY     73  54  51 N13       30.15F
ASHTABULA      MOSUNNY   67  49  52 NW6       30.14F
AKRON-CANTON   MOSUNNY   73  52  47 N5        30.12F
WOOSTER        NOT AVBL
MANSFIELD      PTSUNNY   74  56  53 N7        30.14F
YOUNGSTOWN     MOSUNNY   70  49  47 N9        30.13S
$$

OHZ042-051>053-060>062-070>072-077>081-282000-
  SOUTHWEST OHIO

CITY           SKY/WX    TMP DP  RH WIND       PRES   REMARKS
CINC-COVINGTON MOSUNNY   86  63  45 NE5       30.07F
CINC-LUNKEN    MOSUNNY   84  65  52 NE9       30.06F
HAMILTON       SUNNY     82  64  54 VRB3      30.08F
DAYTON         NOT AVBL
WRIGHT-PAT AFB MOSUNNY   79  62  55 N5        30.10F
DAYTON GENERAL SUNNY     79  62  56 VRB5      30.09F
WILMINGTON     SUNNY     78  59  51 VRB3      30.10F
$$

OHZ036-037-039>041-045>050-054>059-063>069-073>076-082>088-282000-
  CENTRAL AND SOUTHEAST OHIO

CITY           SKY/WX    TMP DP  RH WIND       PRES   REMARKS
COLUMBUS       PTSUNNY   80  59  48 NE5       30.10F
OSU AIRPORT    MOSUNNY   77  59  53 N7        30.11F
BOLTON FIELD   MOSUNNY   79  61  53 CALM      30.11F
RICKENBACK AFB NOT AVBL
NEWARK         MOSUNNY   75  57  53 VRB6      30.11F
MARION         PTSUNNY   74  57  55 NE8       30.12F
LANCASTER      MOSUNNY   78  60  53 VRB6      30.11F
ZANESVILLE     MOSUNNY   74  55  51 N8        30.12F
NEW PHILLY     MOSUNNY   74  59  59 W6        30.12F
$$



USA.gov is the U.S. government's official web portal to all federal, state and local government web resources and services.